Year,Month,Day,Hour,Minute,Value (Times are PST for temperature in C)
2017,06,22,00,00,13.40
2017,06,22,00,01,13.40
2017,06,22,00,02,13.40
2017,06,22,00,03,13.40
2017,06,22,00,04,13.40
2017,06,22,00,05,13.40
2017,06,22,00,06,13.40
2017,06,22,00,07,13.40
2017,06,22,00,08,13.40
2017,06,22,00,09,13.40
2017,06,22,00,10,13.40
2017,06,22,00,11,13.30
2017,06,22,00,12,13.40
2017,06,22,00,13,13.40
2017,06,22,00,14,13.30
2017,06,22,00,15,13.30
2017,06,22,00,16,13.30
2017,06,22,00,17,13.30
2017,06,22,00,18,13.30
2017,06,22,00,19,13.30
2017,06,22,00,20,13.30
2017,06,22,00,21,13.30
2017,06,22,00,22,13.30
2017,06,22,00,23,13.30
2017,06,22,00,24,13.30
2017,06,22,00,25,13.20
2017,06,22,00,26,13.20
2017,06,22,00,27,13.20
2017,06,22,00,28,13.20
2017,06,22,00,29,13.20
2017,06,22,00,30,13.20
2017,06,22,00,31,13.10
2017,06,22,00,32,13.10
2017,06,22,00,33,13.10
2017,06,22,00,34,13.10
2017,06,22,00,35,13.00
2017,06,22,00,36,13.00
2017,06,22,00,37,12.90
2017,06,22,00,38,12.90
2017,06,22,00,39,12.90
2017,06,22,00,40,12.90
2017,06,22,00,41,12.80
2017,06,22,00,42,12.80
2017,06,22,00,43,12.80
2017,06,22,00,44,12.80
2017,06,22,00,45,12.80
2017,06,22,00,46,12.70
2017,06,22,00,47,12.70
2017,06,22,00,48,12.70
2017,06,22,00,49,12.70
2017,06,22,00,50,12.70
2017,06,22,00,51,12.70
2017,06,22,00,52,12.60
2017,06,22,00,53,12.60
2017,06,22,00,54,12.60
2017,06,22,00,55,12.60
2017,06,22,00,56,12.60
2017,06,22,00,57,12.60
2017,06,22,00,58,12.60
2017,06,22,00,59,12.60
2017,06,22,01,00,12.60
2017,06,22,01,01,12.60
2017,06,22,01,02,12.60
2017,06,22,01,03,12.60
2017,06,22,01,04,12.60
2017,06,22,01,05,12.60
2017,06,22,01,06,12.60
2017,06,22,01,07,12.60
2017,06,22,01,08,12.60
2017,06,22,01,09,12.60
2017,06,22,01,10,12.60
2017,06,22,01,11,12.60
2017,06,22,01,12,12.60
2017,06,22,01,13,12.60
2017,06,22,01,14,12.50
2017,06,22,01,15,12.50
2017,06,22,01,16,12.50
2017,06,22,01,17,12.50
2017,06,22,01,18,12.40
2017,06,22,01,19,12.40
2017,06,22,01,20,12.40
2017,06,22,01,21,12.40
2017,06,22,01,22,12.40
2017,06,22,01,23,12.40
2017,06,22,01,24,12.30
2017,06,22,01,25,12.30
2017,06,22,01,26,12.30
2017,06,22,01,27,12.30
2017,06,22,01,28,12.30
2017,06,22,01,29,12.30
2017,06,22,01,30,12.30
2017,06,22,01,31,12.30
2017,06,22,01,32,12.30
2017,06,22,01,33,12.30
2017,06,22,01,34,12.30
2017,06,22,01,35,12.30
2017,06,22,01,36,12.30
2017,06,22,01,37,12.30
2017,06,22,01,38,12.30
2017,06,22,01,39,12.30
2017,06,22,01,40,12.30
2017,06,22,01,41,12.30
2017,06,22,01,42,12.30
2017,06,22,01,43,12.20
2017,06,22,01,44,12.20
2017,06,22,01,45,12.20
2017,06,22,01,46,12.20
2017,06,22,01,47,12.20
2017,06,22,01,48,12.20
2017,06,22,01,49,12.20
2017,06,22,01,50,12.20
2017,06,22,01,51,12.20
2017,06,22,01,52,12.20
2017,06,22,01,53,12.10
2017,06,22,01,54,12.10
2017,06,22,01,55,12.10
2017,06,22,01,56,12.10
2017,06,22,01,57,12.10
2017,06,22,01,58,12.10
2017,06,22,01,59,12.00
2017,06,22,02,00,12.00
2017,06,22,02,01,12.00
2017,06,22,02,02,11.90
2017,06,22,02,03,11.90
2017,06,22,02,04,11.90
2017,06,22,02,05,11.90
2017,06,22,02,06,11.80
2017,06,22,02,07,11.80
2017,06,22,02,08,11.80
2017,06,22,02,09,11.80
2017,06,22,02,10,11.80
2017,06,22,02,11,11.80
2017,06,22,02,12,11.80
2017,06,22,02,13,11.80
2017,06,22,02,14,11.80
2017,06,22,02,15,11.70
2017,06,22,02,16,11.70
2017,06,22,02,17,11.70
2017,06,22,02,18,11.70
2017,06,22,02,19,11.60
2017,06,22,02,20,11.60
2017,06,22,02,21,11.70
2017,06,22,02,22,11.70
2017,06,22,02,23,11.70
2017,06,22,02,24,11.70
2017,06,22,02,25,11.70
2017,06,22,02,26,11.70
2017,06,22,02,27,11.70
2017,06,22,02,28,11.70
2017,06,22,02,29,11.70
2017,06,22,02,30,11.70
2017,06,22,02,31,11.70
2017,06,22,02,32,11.70
2017,06,22,02,33,11.70
2017,06,22,02,34,11.70
2017,06,22,02,35,11.70
2017,06,22,02,36,11.70
2017,06,22,02,37,11.70
2017,06,22,02,38,11.70
2017,06,22,02,39,11.70
2017,06,22,02,40,11.70
2017,06,22,02,41,11.60
2017,06,22,02,42,11.60
2017,06,22,02,43,11.60
2017,06,22,02,44,11.60
2017,06,22,02,45,11.60
2017,06,22,02,46,11.60
2017,06,22,02,47,11.60
2017,06,22,02,48,11.60
2017,06,22,02,49,11.50
2017,06,22,02,50,11.50
2017,06,22,02,51,11.50
2017,06,22,02,52,11.50
2017,06,22,02,53,11.40
2017,06,22,02,54,11.40
2017,06,22,02,55,11.40
2017,06,22,02,56,11.40
2017,06,22,02,57,11.40
2017,06,22,02,58,11.30
2017,06,22,02,59,11.30
2017,06,22,03,00,11.30
2017,06,22,03,01,11.30
2017,06,22,03,02,11.30
2017,06,22,03,03,11.30
2017,06,22,03,04,11.20
2017,06,22,03,05,11.20
2017,06,22,03,06,11.20
2017,06,22,03,07,11.20
2017,06,22,03,08,11.10
2017,06,22,03,09,11.10
2017,06,22,03,10,11.10
2017,06,22,03,11,11.10
2017,06,22,03,12,11.00
2017,06,22,03,13,11.00
2017,06,22,03,14,11.00
2017,06,22,03,15,10.90
2017,06,22,03,16,10.90
2017,06,22,03,17,10.90
2017,06,22,03,18,10.90
2017,06,22,03,19,10.90
2017,06,22,03,20,10.90
2017,06,22,03,21,10.90
2017,06,22,03,22,10.90
2017,06,22,03,23,10.90
2017,06,22,03,24,10.90
2017,06,22,03,25,10.90
2017,06,22,03,26,10.90
2017,06,22,03,27,10.90
2017,06,22,03,28,10.80
2017,06,22,03,29,10.90
2017,06,22,03,30,10.80
2017,06,22,03,31,10.80
2017,06,22,03,32,10.80
2017,06,22,03,33,10.80
2017,06,22,03,34,10.80
2017,06,22,03,35,10.80
2017,06,22,03,36,10.80
2017,06,22,03,37,10.80
2017,06,22,03,38,10.80
2017,06,22,03,39,10.80
2017,06,22,03,40,10.80
2017,06,22,03,41,10.80
2017,06,22,03,42,10.80
2017,06,22,03,43,10.80
2017,06,22,03,44,10.80
2017,06,22,03,45,10.80
2017,06,22,03,46,10.80
2017,06,22,03,47,10.80
2017,06,22,03,48,10.80
2017,06,22,03,49,10.80
2017,06,22,03,50,10.80
2017,06,22,03,51,10.80
2017,06,22,03,52,10.80
2017,06,22,03,53,10.90
2017,06,22,03,54,10.90
2017,06,22,03,55,10.90
2017,06,22,03,56,10.90
2017,06,22,03,57,10.90
2017,06,22,03,58,10.90
2017,06,22,03,59,10.90
2017,06,22,04,00,10.90
2017,06,22,04,01,10.90
2017,06,22,04,02,10.90
2017,06,22,04,03,10.90
2017,06,22,04,04,10.90
2017,06,22,04,05,10.90
2017,06,22,04,06,10.90
2017,06,22,04,07,10.90
2017,06,22,04,08,10.90
2017,06,22,04,09,10.90
2017,06,22,04,10,10.90
2017,06,22,04,11,10.90
2017,06,22,04,12,10.80
2017,06,22,04,13,10.80
2017,06,22,04,14,10.80
2017,06,22,04,15,10.80
2017,06,22,04,16,10.80
2017,06,22,04,17,10.80
2017,06,22,04,18,10.80
2017,06,22,04,19,10.80
2017,06,22,04,20,10.80
2017,06,22,04,21,10.80
2017,06,22,04,22,10.70
2017,06,22,04,23,10.70
2017,06,22,04,24,10.70
2017,06,22,04,25,10.70
2017,06,22,04,26,10.70
2017,06,22,04,27,10.60
2017,06,22,04,28,10.60
2017,06,22,04,29,10.60
2017,06,22,04,30,10.60
2017,06,22,04,31,10.60
2017,06,22,04,32,10.60
2017,06,22,04,33,10.60
2017,06,22,04,34,10.50
2017,06,22,04,35,10.50
2017,06,22,04,36,10.50
2017,06,22,04,37,10.50
2017,06,22,04,38,10.50
2017,06,22,04,39,10.50
2017,06,22,04,40,10.40
2017,06,22,04,41,10.40
2017,06,22,04,42,10.40
2017,06,22,04,43,10.40
2017,06,22,04,44,10.40
2017,06,22,04,45,10.40
2017,06,22,04,46,10.40
2017,06,22,04,47,10.40
2017,06,22,04,48,10.40
2017,06,22,04,49,10.40
2017,06,22,04,50,10.40
2017,06,22,04,51,10.30
2017,06,22,04,52,10.30
2017,06,22,04,53,10.30
2017,06,22,04,54,10.30
2017,06,22,04,55,10.30
2017,06,22,04,56,10.30
2017,06,22,04,57,10.30
2017,06,22,04,58,10.30
2017,06,22,04,59,10.30
2017,06,22,05,00,10.20
2017,06,22,05,01,10.20
2017,06,22,05,02,10.20
2017,06,22,05,03,10.20
2017,06,22,05,04,10.20
2017,06,22,05,05,10.20
2017,06,22,05,06,10.20
2017,06,22,05,07,10.20
2017,06,22,05,08,10.20
2017,06,22,05,09,10.20
2017,06,22,05,10,10.20
2017,06,22,05,11,10.20
2017,06,22,05,12,10.20
2017,06,22,05,13,10.20
2017,06,22,05,14,10.20
2017,06,22,05,15,10.20
2017,06,22,05,16,10.20
2017,06,22,05,17,10.20
2017,06,22,05,18,10.10
2017,06,22,05,19,10.10
2017,06,22,05,20,10.10
2017,06,22,05,21,10.10
2017,06,22,05,22,10.00
2017,06,22,05,23,10.00
2017,06,22,05,24,10.00
2017,06,22,05,25,10.00
2017,06,22,05,26,10.00
2017,06,22,05,27,9.90
2017,06,22,05,28,9.90
2017,06,22,05,29,9.90
2017,06,22,05,30,9.90
2017,06,22,05,31,9.90
2017,06,22,05,32,9.90
2017,06,22,05,33,9.90
2017,06,22,05,34,9.80
2017,06,22,05,35,9.80
2017,06,22,05,36,9.80
2017,06,22,05,37,9.80
2017,06,22,05,38,9.80
2017,06,22,05,39,9.80
2017,06,22,05,40,9.80
2017,06,22,05,41,9.80
2017,06,22,05,42,9.80
2017,06,22,05,43,9.80
2017,06,22,05,44,9.80
2017,06,22,05,45,9.80
2017,06,22,05,46,9.70
2017,06,22,05,47,9.70
2017,06,22,05,48,9.70
2017,06,22,05,49,9.70
2017,06,22,05,50,9.70
2017,06,22,05,51,9.60
2017,06,22,05,52,9.60
2017,06,22,05,53,9.60
2017,06,22,05,54,9.60
2017,06,22,05,55,9.60
2017,06,22,05,56,9.60
2017,06,22,05,57,9.60
2017,06,22,05,58,9.70
2017,06,22,05,59,9.70
2017,06,22,06,00,9.70
2017,06,22,06,01,9.70
2017,06,22,06,02,9.80
2017,06,22,06,03,9.80
2017,06,22,06,04,9.80
2017,06,22,06,05,9.80
2017,06,22,06,06,9.80
2017,06,22,06,07,9.80
2017,06,22,06,08,9.90
2017,06,22,06,09,9.90
2017,06,22,06,10,9.90
2017,06,22,06,11,10.00
2017,06,22,06,12,10.00
2017,06,22,06,13,10.10
2017,06,22,06,14,10.10
2017,06,22,06,15,10.10
2017,06,22,06,16,10.20
2017,06,22,06,17,10.20
2017,06,22,06,18,10.30
2017,06,22,06,19,10.30
2017,06,22,06,20,10.30
2017,06,22,06,21,10.40
2017,06,22,06,22,10.40
2017,06,22,06,23,10.50
2017,06,22,06,24,10.50
2017,06,22,06,25,10.60
2017,06,22,06,26,10.60
2017,06,22,06,27,10.70
2017,06,22,06,28,10.70
2017,06,22,06,29,10.70
2017,06,22,06,30,10.80
2017,06,22,06,31,10.80
2017,06,22,06,32,10.80
2017,06,22,06,33,10.80
2017,06,22,06,34,10.90
2017,06,22,06,35,10.90
2017,06,22,06,36,10.90
2017,06,22,06,37,10.90
2017,06,22,06,38,11.00
2017,06,22,06,39,11.00
2017,06,22,06,40,11.10
2017,06,22,06,41,11.10
2017,06,22,06,42,11.10
2017,06,22,06,43,11.20
2017,06,22,06,44,11.20
2017,06,22,06,45,11.20
2017,06,22,06,46,11.20
2017,06,22,06,47,11.30
2017,06,22,06,48,11.30
2017,06,22,06,49,11.30
2017,06,22,06,50,11.40
2017,06,22,06,51,11.40
2017,06,22,06,52,11.40
2017,06,22,06,53,11.40
2017,06,22,06,54,11.50
2017,06,22,06,55,11.50
2017,06,22,06,56,11.50
2017,06,22,06,57,11.60
2017,06,22,06,58,11.60
2017,06,22,06,59,11.60
2017,06,22,07,00,11.70
2017,06,22,07,01,11.70
2017,06,22,07,02,11.70
2017,06,22,07,03,11.70
2017,06,22,07,04,11.80
2017,06,22,07,05,11.80
2017,06,22,07,06,11.80
2017,06,22,07,07,11.80
2017,06,22,07,08,11.90
2017,06,22,07,09,11.90
2017,06,22,07,10,11.90
2017,06,22,07,11,12.00
2017,06,22,07,12,12.00
2017,06,22,07,13,12.10
2017,06,22,07,14,12.10
2017,06,22,07,15,12.10
2017,06,22,07,16,12.20
2017,06,22,07,17,12.20
2017,06,22,07,18,12.20
2017,06,22,07,19,12.30
2017,06,22,07,20,12.30
2017,06,22,07,21,12.30
2017,06,22,07,22,12.40
2017,06,22,07,23,12.40
2017,06,22,07,24,12.40
2017,06,22,07,25,12.40
2017,06,22,07,26,12.50
2017,06,22,07,27,12.50
2017,06,22,07,28,12.60
2017,06,22,07,29,12.60
2017,06,22,07,30,12.60
2017,06,22,07,31,12.70
2017,06,22,07,32,12.70
2017,06,22,07,33,12.70
2017,06,22,07,34,12.70
2017,06,22,07,35,12.70
2017,06,22,07,36,12.70
2017,06,22,07,37,12.80
2017,06,22,07,38,12.80
2017,06,22,07,39,12.80
2017,06,22,07,40,12.80
2017,06,22,07,41,12.90
2017,06,22,07,42,12.90
2017,06,22,07,43,12.90
2017,06,22,07,44,13.00
2017,06,22,07,45,13.00
2017,06,22,07,46,13.10
2017,06,22,07,47,13.10
2017,06,22,07,48,13.20
2017,06,22,07,49,13.20
2017,06,22,07,50,13.30
2017,06,22,07,51,13.30
2017,06,22,07,52,13.30
2017,06,22,07,53,13.40
2017,06,22,07,54,13.40
2017,06,22,07,55,13.40
2017,06,22,07,56,13.40
2017,06,22,07,57,13.40
2017,06,22,07,58,13.50
2017,06,22,07,59,13.50
2017,06,22,08,00,13.60
2017,06,22,08,01,13.60
2017,06,22,08,02,13.60
2017,06,22,08,03,13.70
2017,06,22,08,04,13.70
2017,06,22,08,05,13.70
2017,06,22,08,06,13.70
2017,06,22,08,07,13.70
2017,06,22,08,08,13.70
2017,06,22,08,09,13.70
2017,06,22,08,10,13.70
2017,06,22,08,11,13.70
2017,06,22,08,12,13.70
2017,06,22,08,13,13.70
2017,06,22,08,14,13.70
2017,06,22,08,15,13.70
2017,06,22,08,16,13.70
2017,06,22,08,17,13.70
2017,06,22,08,18,13.70
2017,06,22,08,19,13.70
2017,06,22,08,20,13.80
2017,06,22,08,21,13.80
2017,06,22,08,22,13.80
2017,06,22,08,23,13.80
2017,06,22,08,24,13.80
2017,06,22,08,25,13.80
2017,06,22,08,26,13.80
2017,06,22,08,27,13.80
2017,06,22,08,28,13.80
2017,06,22,08,29,13.80
2017,06,22,08,30,13.80
2017,06,22,08,31,13.80
2017,06,22,08,32,13.80
2017,06,22,08,33,13.80
2017,06,22,08,34,13.80
2017,06,22,08,35,13.80
2017,06,22,08,36,13.90
2017,06,22,08,37,13.90
2017,06,22,08,38,13.90
2017,06,22,08,39,14.00
2017,06,22,08,40,14.10
2017,06,22,08,41,14.20
2017,06,22,08,42,14.20
2017,06,22,08,43,14.20
2017,06,22,08,44,14.20
2017,06,22,08,45,14.20
2017,06,22,08,46,14.20
2017,06,22,08,47,14.20
2017,06,22,08,48,14.20
2017,06,22,08,49,14.30
2017,06,22,08,50,14.30
2017,06,22,08,51,14.40
2017,06,22,08,52,14.40
2017,06,22,08,53,14.40
2017,06,22,08,54,14.40
2017,06,22,08,55,14.40
2017,06,22,08,56,14.40
2017,06,22,08,57,14.40
2017,06,22,08,58,14.40
2017,06,22,08,59,14.40
2017,06,22,09,00,14.40
2017,06,22,09,01,14.40
2017,06,22,09,02,14.40
2017,06,22,09,03,14.40
2017,06,22,09,04,14.40
2017,06,22,09,05,14.40
2017,06,22,09,06,14.40
2017,06,22,09,07,14.40
2017,06,22,09,08,14.40
2017,06,22,09,09,14.40
2017,06,22,09,10,14.40
2017,06,22,09,11,14.40
2017,06,22,09,12,14.40
2017,06,22,09,13,14.40
2017,06,22,09,14,14.40
2017,06,22,09,15,14.40
2017,06,22,09,16,14.40
2017,06,22,09,17,14.50
2017,06,22,09,18,14.50
2017,06,22,09,19,14.50
2017,06,22,09,20,14.50
2017,06,22,09,21,14.40
2017,06,22,09,22,14.40
2017,06,22,09,23,14.40
2017,06,22,09,24,14.40
2017,06,22,09,25,14.40
2017,06,22,09,26,14.50
2017,06,22,09,27,14.50
2017,06,22,09,28,14.60
2017,06,22,09,29,14.60
2017,06,22,09,30,14.60
2017,06,22,09,31,14.70
2017,06,22,09,32,14.70
2017,06,22,09,33,14.60
2017,06,22,09,34,14.60
2017,06,22,09,35,14.60
2017,06,22,09,36,14.50
2017,06,22,09,37,14.60
2017,06,22,09,38,14.60
2017,06,22,09,39,14.70
2017,06,22,09,40,14.70
2017,06,22,09,41,14.70
2017,06,22,09,42,14.70
2017,06,22,09,43,14.70
2017,06,22,09,44,14.70
2017,06,22,09,45,14.70
2017,06,22,09,46,14.70
2017,06,22,09,47,14.70
2017,06,22,09,48,14.70
2017,06,22,09,49,14.70
2017,06,22,09,50,14.80
2017,06,22,09,51,14.80
2017,06,22,09,52,14.80
2017,06,22,09,53,14.80
2017,06,22,09,54,14.80
2017,06,22,09,55,14.80
2017,06,22,09,56,14.80
2017,06,22,09,57,14.80
2017,06,22,09,58,14.80
2017,06,22,09,59,14.70
2017,06,22,10,00,14.70
2017,06,22,10,01,14.70
2017,06,22,10,02,14.70
2017,06,22,10,03,14.70
2017,06,22,10,04,14.60
2017,06,22,10,05,14.70
2017,06,22,10,06,14.70
2017,06,22,10,07,14.70
2017,06,22,10,08,14.70
2017,06,22,10,09,14.70
2017,06,22,10,10,14.70
2017,06,22,10,11,14.70
2017,06,22,10,12,14.70
2017,06,22,10,13,14.70
2017,06,22,10,14,14.70
2017,06,22,10,15,14.70
2017,06,22,10,16,14.80
2017,06,22,10,17,14.80
2017,06,22,10,18,14.90
2017,06,22,10,19,15.00
2017,06,22,10,20,15.00
2017,06,22,10,21,15.00
2017,06,22,10,22,15.00
2017,06,22,10,23,15.00
2017,06,22,10,24,15.00
2017,06,22,10,25,15.00
2017,06,22,10,26,15.00
2017,06,22,10,27,15.10
2017,06,22,10,28,15.10
2017,06,22,10,29,15.10
2017,06,22,10,30,15.20
2017,06,22,10,31,15.30
2017,06,22,10,32,15.40
2017,06,22,10,33,15.40
2017,06,22,10,34,15.50
2017,06,22,10,35,15.60
2017,06,22,10,36,15.60
2017,06,22,10,37,15.70
2017,06,22,10,38,15.70
2017,06,22,10,39,15.70
2017,06,22,10,40,15.70
2017,06,22,10,41,15.60
2017,06,22,10,42,15.60
2017,06,22,10,43,15.60
2017,06,22,10,44,15.60
2017,06,22,10,45,15.60
2017,06,22,10,46,15.60
2017,06,22,10,47,15.50
2017,06,22,10,48,15.50
2017,06,22,10,49,15.50
2017,06,22,10,50,15.50
2017,06,22,10,51,15.50
2017,06,22,10,52,15.60
2017,06,22,10,53,15.60
2017,06,22,10,54,15.60
2017,06,22,10,55,15.60
2017,06,22,10,56,15.60
2017,06,22,10,57,15.60
2017,06,22,10,58,15.60
2017,06,22,10,59,15.50
2017,06,22,11,00,15.50
2017,06,22,11,01,15.50
2017,06,22,11,02,15.50
2017,06,22,11,03,15.50
2017,06,22,11,04,15.60
2017,06,22,11,05,15.60
2017,06,22,11,06,15.70
2017,06,22,11,07,15.80
2017,06,22,11,08,15.80
2017,06,22,11,09,15.80
2017,06,22,11,10,15.80
2017,06,22,11,11,15.80
2017,06,22,11,12,15.80
2017,06,22,11,13,15.80
2017,06,22,11,14,15.90
2017,06,22,11,15,15.90
2017,06,22,11,16,15.90
2017,06,22,11,17,16.00
2017,06,22,11,18,16.10
2017,06,22,11,19,16.20
2017,06,22,11,20,16.30
2017,06,22,11,21,16.40
2017,06,22,11,22,16.40
2017,06,22,11,23,16.50
2017,06,22,11,24,16.40
2017,06,22,11,25,16.40
2017,06,22,11,26,16.40
2017,06,22,11,27,16.50
2017,06,22,11,28,16.50
2017,06,22,11,29,16.50
2017,06,22,11,30,16.60
2017,06,22,11,31,16.60
2017,06,22,11,32,16.60
2017,06,22,11,33,16.50
2017,06,22,11,34,16.50
2017,06,22,11,35,16.40
2017,06,22,11,36,16.40
2017,06,22,11,37,16.40
2017,06,22,11,38,16.40
2017,06,22,11,39,16.40
2017,06,22,11,40,16.50
2017,06,22,11,41,16.50
2017,06,22,11,42,16.60
2017,06,22,11,43,16.60
2017,06,22,11,44,16.60
2017,06,22,11,45,16.50
2017,06,22,11,46,16.50
2017,06,22,11,47,16.50
2017,06,22,11,48,16.60
2017,06,22,11,49,16.60
2017,06,22,11,50,16.60
2017,06,22,11,51,16.60
2017,06,22,11,52,16.60
2017,06,22,11,53,16.60
2017,06,22,11,54,16.50
2017,06,22,11,55,16.50
2017,06,22,11,56,16.40
2017,06,22,11,57,16.50
2017,06,22,11,58,16.50
2017,06,22,11,59,16.50
2017,06,22,12,00,16.50
2017,06,22,12,01,16.50
2017,06,22,12,02,16.50
2017,06,22,12,03,16.60
2017,06,22,12,04,16.60
2017,06,22,12,05,16.70
2017,06,22,12,06,16.70
2017,06,22,12,07,16.70
2017,06,22,12,08,16.70
2017,06,22,12,09,16.80
2017,06,22,12,10,16.80
2017,06,22,12,11,16.80
2017,06,22,12,12,16.70
2017,06,22,12,13,16.70
2017,06,22,12,14,16.60
2017,06,22,12,15,16.70
2017,06,22,12,16,16.70
2017,06,22,12,17,16.80
2017,06,22,12,18,16.90
2017,06,22,12,19,16.90
2017,06,22,12,20,17.00
2017,06,22,12,21,17.10
2017,06,22,12,22,17.10
2017,06,22,12,23,17.10
2017,06,22,12,24,17.30
2017,06,22,12,25,17.30
2017,06,22,12,26,17.30
2017,06,22,12,27,17.40
2017,06,22,12,28,17.50
2017,06,22,12,29,17.60
2017,06,22,12,30,17.70
2017,06,22,12,31,17.80
2017,06,22,12,32,17.80
2017,06,22,12,33,17.80
2017,06,22,12,34,17.70
2017,06,22,12,35,17.70
2017,06,22,12,36,17.70
2017,06,22,12,37,17.60
2017,06,22,12,38,17.60
2017,06,22,12,39,17.50
2017,06,22,12,40,17.40
2017,06,22,12,41,17.30
2017,06,22,12,42,17.30
2017,06,22,12,43,17.30
2017,06,22,12,44,17.30
2017,06,22,12,45,17.40
2017,06,22,12,46,17.40
2017,06,22,12,47,17.50
2017,06,22,12,48,17.60
2017,06,22,12,49,17.60
2017,06,22,12,50,17.70
2017,06,22,12,51,17.90
2017,06,22,12,52,18.00
2017,06,22,12,53,18.00
2017,06,22,12,54,18.10
2017,06,22,12,55,18.20
2017,06,22,12,56,18.20
2017,06,22,12,57,18.30
2017,06,22,12,58,18.40
2017,06,22,12,59,18.40
2017,06,22,13,00,18.50
2017,06,22,13,01,18.60
2017,06,22,13,02,18.60
2017,06,22,13,03,18.60
2017,06,22,13,04,18.70
2017,06,22,13,05,18.70
2017,06,22,13,06,18.80
2017,06,22,13,07,18.80
2017,06,22,13,08,18.80
2017,06,22,13,09,18.70
2017,06,22,13,10,18.70
2017,06,22,13,11,18.70
2017,06,22,13,12,18.70
2017,06,22,13,13,18.60
2017,06,22,13,14,18.60
2017,06,22,13,15,18.60
2017,06,22,13,16,18.70
2017,06,22,13,17,18.70
2017,06,22,13,18,18.70
2017,06,22,13,19,18.70
2017,06,22,13,20,18.80
2017,06,22,13,21,18.80
2017,06,22,13,22,18.70
2017,06,22,13,23,18.70
2017,06,22,13,24,18.70
2017,06,22,13,25,18.70
2017,06,22,13,26,18.70
2017,06,22,13,27,18.80
2017,06,22,13,28,18.80
2017,06,22,13,29,18.80
2017,06,22,13,30,18.80
2017,06,22,13,31,18.80
2017,06,22,13,32,18.80
2017,06,22,13,33,18.80
2017,06,22,13,34,18.80
2017,06,22,13,35,18.80
2017,06,22,13,36,18.80
2017,06,22,13,37,18.80
2017,06,22,13,38,18.90
2017,06,22,13,39,18.90
2017,06,22,13,40,18.90
2017,06,22,13,41,19.00
2017,06,22,13,42,19.00
2017,06,22,13,43,19.10
2017,06,22,13,44,19.10
2017,06,22,13,45,19.20
2017,06,22,13,46,19.20
2017,06,22,13,47,19.30
2017,06,22,13,48,19.40
2017,06,22,13,49,19.40
2017,06,22,13,50,19.40
2017,06,22,13,51,19.50
2017,06,22,13,52,19.40
2017,06,22,13,53,19.50
2017,06,22,13,54,19.60
2017,06,22,13,55,19.60
2017,06,22,13,56,19.70
2017,06,22,13,57,19.70
2017,06,22,13,58,19.70
2017,06,22,13,59,19.70
2017,06,22,14,00,19.70
2017,06,22,14,01,19.70
2017,06,22,14,02,19.70
2017,06,22,14,03,19.70
2017,06,22,14,04,19.70
2017,06,22,14,05,19.70
2017,06,22,14,06,19.80
2017,06,22,14,07,19.80
2017,06,22,14,08,19.80
2017,06,22,14,09,19.70
2017,06,22,14,10,19.70
2017,06,22,14,11,19.60
2017,06,22,14,12,19.60
2017,06,22,14,13,19.60
2017,06,22,14,14,19.60
2017,06,22,14,15,19.60
2017,06,22,14,16,19.60
2017,06,22,14,17,19.70
2017,06,22,14,18,19.70
2017,06,22,14,19,19.80
2017,06,22,14,20,19.80
2017,06,22,14,21,19.90
2017,06,22,14,22,19.90
2017,06,22,14,23,20.00
2017,06,22,14,24,20.10
2017,06,22,14,25,20.10
2017,06,22,14,26,20.20
2017,06,22,14,27,20.20
2017,06,22,14,28,20.30
2017,06,22,14,29,20.30
2017,06,22,14,30,20.40
2017,06,22,14,31,20.40
2017,06,22,14,32,20.40
2017,06,22,14,33,20.40
2017,06,22,14,34,20.40
2017,06,22,14,35,20.30
2017,06,22,14,36,20.30
2017,06,22,14,37,20.20
2017,06,22,14,38,20.10
2017,06,22,14,39,20.00
2017,06,22,14,40,19.90
2017,06,22,14,41,19.80
2017,06,22,14,42,19.80
2017,06,22,14,43,19.80
2017,06,22,14,44,19.70
2017,06,22,14,45,19.70
2017,06,22,14,46,19.60
2017,06,22,14,47,19.50
2017,06,22,14,48,19.40
2017,06,22,14,49,19.40
2017,06,22,14,50,19.40
2017,06,22,14,51,19.30
2017,06,22,14,52,19.30
2017,06,22,14,53,19.20
2017,06,22,14,54,19.20
2017,06,22,14,55,19.10
2017,06,22,14,56,19.00
2017,06,22,14,57,18.90
2017,06,22,14,58,18.80
2017,06,22,14,59,18.80
2017,06,22,15,00,18.80
2017,06,22,15,01,18.70
2017,06,22,15,02,18.80
2017,06,22,15,03,18.80
2017,06,22,15,04,18.80
2017,06,22,15,05,18.90
2017,06,22,15,06,18.90
2017,06,22,15,07,19.00
2017,06,22,15,08,19.00
2017,06,22,15,09,19.10
2017,06,22,15,10,19.10
2017,06,22,15,11,19.10
2017,06,22,15,12,19.10
2017,06,22,15,13,19.20
2017,06,22,15,14,19.20
2017,06,22,15,15,19.30
2017,06,22,15,16,19.30
2017,06,22,15,17,19.30
2017,06,22,15,18,19.40
2017,06,22,15,19,19.40
2017,06,22,15,20,19.40
2017,06,22,15,21,19.40
2017,06,22,15,22,19.50
2017,06,22,15,23,19.50
2017,06,22,15,24,19.60
2017,06,22,15,25,19.50
2017,06,22,15,26,19.50
2017,06,22,15,27,19.40
2017,06,22,15,28,19.40
2017,06,22,15,29,19.40
2017,06,22,15,30,19.40
2017,06,22,15,31,19.40
2017,06,22,15,32,19.40
2017,06,22,15,33,19.40
2017,06,22,15,34,19.40
2017,06,22,15,35,19.50
2017,06,22,15,36,19.50
2017,06,22,15,37,19.40
2017,06,22,15,38,19.40
2017,06,22,15,39,19.40
2017,06,22,15,40,19.40
2017,06,22,15,41,19.40
2017,06,22,15,42,19.30
2017,06,22,15,43,19.30
2017,06,22,15,44,19.30
2017,06,22,15,45,19.30
2017,06,22,15,46,19.40
2017,06,22,15,47,19.40
2017,06,22,15,48,19.40
2017,06,22,15,49,19.40
2017,06,22,15,50,19.30
2017,06,22,15,51,19.30
2017,06,22,15,52,19.30
2017,06,22,15,53,19.30
2017,06,22,15,54,19.40
2017,06,22,15,55,19.40
2017,06,22,15,56,19.40
2017,06,22,15,57,19.40
2017,06,22,15,58,19.40
2017,06,22,15,59,19.50
2017,06,22,16,00,19.60
2017,06,22,16,01,19.60
2017,06,22,16,02,19.70
2017,06,22,16,03,19.80
2017,06,22,16,04,19.80
2017,06,22,16,05,19.80
2017,06,22,16,06,19.90
2017,06,22,16,07,19.90
2017,06,22,16,08,20.00
2017,06,22,16,09,20.00
2017,06,22,16,10,20.00
2017,06,22,16,11,19.90
2017,06,22,16,12,19.90
2017,06,22,16,13,19.90
2017,06,22,16,14,19.90
2017,06,22,16,15,19.90
2017,06,22,16,16,19.90
2017,06,22,16,17,19.90
2017,06,22,16,18,19.90
2017,06,22,16,19,19.90
2017,06,22,16,20,19.90
2017,06,22,16,21,19.90
2017,06,22,16,22,19.90
2017,06,22,16,23,19.90
2017,06,22,16,24,19.90
2017,06,22,16,25,19.80
2017,06,22,16,26,19.80
2017,06,22,16,27,19.80
2017,06,22,16,28,19.80
2017,06,22,16,29,19.90
2017,06,22,16,30,19.90
2017,06,22,16,31,20.00
2017,06,22,16,32,20.10
2017,06,22,16,33,20.10
2017,06,22,16,34,20.10
2017,06,22,16,35,20.20
2017,06,22,16,36,20.20
2017,06,22,16,37,20.20
2017,06,22,16,38,20.20
2017,06,22,16,39,20.20
2017,06,22,16,40,20.20
2017,06,22,16,41,20.20
2017,06,22,16,42,20.20
2017,06,22,16,43,20.20
2017,06,22,16,44,20.20
2017,06,22,16,45,20.20
2017,06,22,16,46,20.20
2017,06,22,16,47,20.30
2017,06,22,16,48,20.30
2017,06,22,16,49,20.40
2017,06,22,16,50,20.40
2017,06,22,16,51,20.40
2017,06,22,16,52,20.40
2017,06,22,16,53,20.40
2017,06,22,16,54,20.50
2017,06,22,16,55,20.50
2017,06,22,16,56,20.60
2017,06,22,16,57,20.60
2017,06,22,16,58,20.60
2017,06,22,16,59,20.70
2017,06,22,17,00,20.70
2017,06,22,17,01,20.80
2017,06,22,17,02,20.80
2017,06,22,17,03,20.80
2017,06,22,17,04,20.90
2017,06,22,17,05,20.90
2017,06,22,17,06,21.00
2017,06,22,17,07,21.00
2017,06,22,17,08,21.10
2017,06,22,17,09,21.10
2017,06,22,17,10,21.20
2017,06,22,17,11,21.30
2017,06,22,17,12,21.30
2017,06,22,17,13,21.40
2017,06,22,17,14,21.50
2017,06,22,17,15,21.60
2017,06,22,17,16,21.70
2017,06,22,17,17,21.70
2017,06,22,17,18,21.80
2017,06,22,17,19,21.80
2017,06,22,17,20,21.80
2017,06,22,17,21,21.90